Weather History for Litchfield, MN

Change the Weather History Date:

Friday, January 4, 2013

  Actual Average Record
Temperature  
Mean Temperature 18 °F -  
Max Temperature 28 °F 18 °F 42 °F (2001)
Min Temperature 8 °F 0 °F -26 °F (1968)
Degree Days  
Heating Degree Days 47    
Moisture  
Dew Point 15 °F    
Average Humidity 84    
Maximum Humidity 100    
Minimum Humidity 64    
Precipitation  
Precipitation 0.00 in - - ()
Sea Level Pressure  
Sea Level Pressure 30.05 in    
Wind  
Wind Speed 6 mph (WSW)    
Max Wind Speed 10 mph    
Max Gust Speed -    
Visibility 10 miles    
Events      
Averages and records for this station are not official NWS values.
T = Trace of Precipitation, MM = Missing Value Source: NWS Daily Summary

Daily Weather History Graph

Daily Weather History Graph

Search for Another Location

Airport:

Trip Planner

Search our weather history database for the weather conditions in past years. The results will help you decide how hot, cold, wet, or windy it might be!

Date:

Astronomy

Jan. 04, 2013 Rise Set
Actual Time 7:56 AM CST 4:50 PM CST
Civil Twilight 7:23 AM CST 5:23 PM CST
Nautical Twilight 6:46 AM CST 6:00 PM CST
Astronomical Twilight 6:10 AM CST 6:36 PM CST
Moon No Moon Rise 11:18 AM CST (1/4)
Length of Visible Light 10h 00m
Length of Day
8h 53m
Waning Gibbous, 55% of the Moon is Illuminated
Jan 4
Waning Gibbous
Jan 4
Last Quarter
Jan 11
New
Jan 18
First Quarter
Jan 26
Full

Hourly Weather History & Observations

Time (CST) Temp. Windchill Dew Point Humidity Pressure Visibility Wind Dir Wind Speed Gust Speed Precip Events Conditions
12:13 AM 17.6 °F 7.3 °F 15.8 °F 93% 30.03 in 10.0 mi SW 8.1 mph - N/A   Clear
12:33 AM 17.6 °F 8.2 °F 15.8 °F 93% 30.02 in 10.0 mi SW 6.9 mph - N/A   Clear
12:53 AM 17.6 °F 7.3 °F 14.0 °F 86% 30.02 in 10.0 mi WSW 8.1 mph - N/A   Clear
1:13 AM 15.8 °F 6.1 °F 14.0 °F 93% 30.03 in 10.0 mi WSW 6.9 mph - N/A   Clear
1:33 AM 15.8 °F 6.1 °F 14.0 °F 93% 30.03 in 10.0 mi WSW 6.9 mph - N/A   Clear
1:53 AM 17.6 °F 7.3 °F 15.8 °F 93% 30.02 in 10.0 mi WSW 8.1 mph - N/A   Clear
2:33 AM 17.6 °F 5.7 °F 15.8 °F 93% 30.01 in 10.0 mi WSW 10.4 mph - N/A   Clear
2:53 AM 17.6 °F 7.3 °F 15.8 °F 93% 30.00 in 10.0 mi WSW 8.1 mph - N/A   Clear
3:13 AM 17.6 °F 7.3 °F 15.8 °F 93% 29.99 in 10.0 mi WSW 8.1 mph - N/A   Clear
3:33 AM 19.4 °F 9.5 °F 15.8 °F 86% 30.00 in 10.0 mi WSW 8.1 mph - N/A   Clear
3:53 AM 19.4 °F 10.4 °F 15.8 °F 86% 29.99 in 10.0 mi WSW 6.9 mph - N/A   Clear
4:13 AM 19.4 °F 11.5 °F 15.8 °F 86% 29.99 in 10.0 mi WSW 5.8 mph - N/A   Clear
4:33 AM 19.4 °F 10.4 °F 15.8 °F 86% 29.99 in 10.0 mi WSW 6.9 mph - N/A   Clear
4:53 AM 19.4 °F 12.8 °F 15.8 °F 86% 29.99 in 10.0 mi WSW 4.6 mph - N/A   Clear
5:13 AM 19.4 °F 12.8 °F 15.8 °F 86% 30.00 in 10.0 mi WSW 4.6 mph - N/A   Clear
5:33 AM 19.4 °F 12.8 °F 15.8 °F 86% 30.00 in 10.0 mi WSW 4.6 mph - N/A   Clear
6:13 AM 21.2 °F 13.6 °F 15.8 °F 80% 30.01 in 10.0 mi West 5.8 mph - N/A   Clear
6:33 AM 19.4 °F 11.5 °F 14.0 °F 80% 30.01 in 10.0 mi West 5.8 mph - N/A   Clear
7:13 AM 19.4 °F 14.3 °F 14.0 °F 80% 30.02 in 10.0 mi WSW 3.5 mph - N/A   Clear
7:33 AM 17.6 °F 12.3 °F 14.0 °F 86% 30.03 in 10.0 mi West 3.5 mph - N/A   Clear
7:53 AM 17.6 °F 12.3 °F 14.0 °F 86% 30.03 in 10.0 mi West 3.5 mph - N/A   Clear
8:13 AM 17.6 °F 12.3 °F 14.0 °F 86% 30.03 in 10.0 mi WSW 3.5 mph - N/A   Clear
8:33 AM 19.4 °F 12.8 °F 14.0 °F 80% 30.03 in 10.0 mi West 4.6 mph - N/A   Clear
8:53 AM 19.4 °F 11.5 °F 14.0 °F 80% 30.04 in 10.0 mi West 5.8 mph - N/A   Clear
9:13 AM 19.4 °F 10.4 °F 14.0 °F 80% 30.05 in 10.0 mi West 6.9 mph - N/A   Clear
9:33 AM 19.4 °F 10.4 °F 14.0 °F 80% 30.05 in 10.0 mi West 6.9 mph - N/A   Clear
9:53 AM 21.2 °F 12.6 °F 14.0 °F 74% 30.06 in 10.0 mi West 6.9 mph - N/A   Clear
10:13 AM 21.2 °F 12.6 °F 15.8 °F 80% 30.07 in 10.0 mi West 6.9 mph - N/A   Clear
10:33 AM 21.2 °F 12.6 °F 15.8 °F 80% 30.07 in 10.0 mi West 6.9 mph - N/A   Clear
10:53 AM 23.0 °F 13.9 °F 15.8 °F 74% 30.08 in 10.0 mi WNW 8.1 mph - N/A   Clear
11:13 AM 23.0 °F 13.9 °F 15.8 °F 74% 30.08 in 10.0 mi WNW 8.1 mph - N/A   Clear
11:33 AM 24.8 °F 16.1 °F 15.8 °F 69% 30.08 in 10.0 mi West 8.1 mph - N/A   Clear
11:53 AM 24.8 °F 16.9 °F 15.8 °F 69% 30.07 in 10.0 mi West 6.9 mph - N/A   Clear
12:13 PM 24.8 °F 16.1 °F 15.8 °F 69% 30.07 in 10.0 mi West 8.1 mph - N/A   Clear
12:33 PM 26.6 °F 19.1 °F 17.6 °F 69% 30.07 in 10.0 mi West 6.9 mph - N/A   Clear
12:53 PM 26.6 °F 21.2 °F 17.6 °F 69% 30.06 in 10.0 mi West 4.6 mph - N/A   Clear
1:12 PM 26.6 °F 22.6 °F 17.6 °F 69% 30.06 in 10.0 mi West 3.5 mph - N/A   Clear
1:33 PM 26.6 °F 21.2 °F 17.6 °F 69% 30.06 in 10.0 mi West 4.6 mph - N/A   Clear
1:53 PM 26.6 °F 21.2 °F 17.6 °F 69% 30.06 in 10.0 mi West 4.6 mph - N/A   Clear
2:12 PM 28.4 °F 22.2 °F 17.6 °F 64% 30.06 in 10.0 mi West 5.8 mph - N/A   Clear
2:33 PM 28.4 °F 24.6 °F 17.6 °F 64% 30.07 in 10.0 mi West 3.5 mph - N/A   Clear
2:53 PM 28.4 °F 23.3 °F 17.6 °F 64% 30.07 in 10.0 mi SW 4.6 mph - N/A   Clear
3:12 PM 26.6 °F 21.2 °F 17.6 °F 69% 30.08 in 10.0 mi SW 4.6 mph - N/A   Clear
3:33 PM 26.6 °F 22.6 °F 17.6 °F 69% 30.08 in 10.0 mi SW 3.5 mph - N/A   Clear
3:53 PM 24.8 °F 20.5 °F 17.6 °F 74% 30.09 in 10.0 mi WSW 3.5 mph - N/A   Clear
4:12 PM 24.8 °F - 17.6 °F 74% 30.09 in 10.0 mi Calm Calm - N/A   Clear
4:33 PM 23.0 °F - 17.6 °F 80% 30.09 in 10.0 mi Calm Calm - N/A   Clear
4:53 PM 21.2 °F 16.4 °F 17.6 °F 86% 30.10 in 10.0 mi SW 3.5 mph - N/A   Clear
5:33 PM 19.4 °F 14.3 °F 15.8 °F 86% 30.10 in 10.0 mi WSW 3.5 mph - N/A   Clear
5:53 PM 19.4 °F 14.3 °F 15.8 °F 86% 30.10 in 10.0 mi WSW 3.5 mph - N/A   Clear
6:12 PM 17.6 °F - 15.8 °F 93% 30.10 in 10.0 mi Calm Calm - N/A   Clear
6:33 PM 17.6 °F - 15.8 °F 93% 30.09 in 10.0 mi Calm Calm - N/A   Clear
6:53 PM 15.8 °F - 12.2 °F 86% 30.09 in 10.0 mi Calm Calm - N/A   Clear
7:13 PM 15.8 °F - 12.2 °F 86% 30.09 in 10.0 mi Calm Calm - N/A   Clear
7:33 PM 15.8 °F - 14.0 °F 93% 30.08 in 10.0 mi Calm Calm - N/A   Clear
7:53 PM 14.0 °F - 12.2 °F 93% 30.09 in 7.0 mi Calm Calm - N/A   Clear
8:13 PM 12.2 °F 6.1 °F 12.2 °F 100% 30.10 in 10.0 mi SW 3.5 mph - N/A   Clear
8:33 PM 15.8 °F 10.2 °F 14.0 °F 93% 30.10 in 10.0 mi SW 3.5 mph - N/A   Clear
8:53 PM 15.8 °F - 14.0 °F 93% 30.09 in 10.0 mi Calm Calm - N/A   Clear
9:13 PM 15.8 °F - 14.0 °F 93% 30.08 in 10.0 mi Calm Calm - N/A   Clear
9:33 PM 14.0 °F - 12.2 °F 93% 30.07 in 10.0 mi Calm Calm - N/A   Clear
9:53 PM 10.4 °F - 10.4 °F 100% 30.07 in 10.0 mi Calm Calm - N/A   Clear
10:13 PM 10.4 °F - 10.4 °F 100% 30.07 in 10.0 mi Calm Calm - N/A   Clear
10:33 PM 10.4 °F - 10.4 °F 100% 30.06 in 10.0 mi Calm Calm - N/A   Clear
11:13 PM 8.6 °F - 6.8 °F 92% 30.06 in 10.0 mi Calm Calm - N/A   Clear
11:33 PM 8.6 °F - 8.6 °F 100% 30.06 in 10.0 mi Calm Calm - N/A   Clear
11:53 PM 8.6 °F - 8.6 °F 100% 30.06 in 10.0 mi Calm Calm - N/A   Clear